FREGAT R/B, 40083

Orbit data source: Space-Track

FREGAT R/B, 40083 is space debris originally from a launch on Thu, 10 Jul 2014 UTC launched from the French Guiana (FRGUI). Debris objects in space refer to the collection of defunct objects orbiting the Earth. Examples of debris include non-operational satellites, rocket bodies, and fragments generated from explosions, collisions, or faulty payload assembly.

Loading next visibility...
FREGAT R/B details
Identifier
40083, 2014-038E
Orbit
Active
Last TLE update1 day ago
Origin
Flag of CISLavochkin (CIS)
ManufacturerLavochkin
MissionSpacecraft
Bus & MotorFREGAT, Unknown motor
Mass1,050 kg wet, 1,050 kg dry
Launch date (UTC)
2014-07-10 (11 years ago)
Launch vehicleUnknown
Launch site
French Guiana (FRGUI)
Object type
Payload
Rocket body
Debris
Shape & HBRIrr, 3.3 m
Radar Cross Section11.055 m², Large (>1 m²)

Expand to show TLE details & history

TLE from 1 day ago
0 FREGAT R/B
1 40083U 14038E   25039.35792522 -.00000022  00000-0  00000-0 0  9990
2 40083   0.0946 260.2178 0010735 142.2389 317.6194  5.21123826201483
Epoch: 2025-02-08T08:35Z
Definitive object data (Epoch: 2025-02-08T08:35:24.739Z)
Latitude0.08939°
Longitude92.44°
Altitude7,662.341 km
Speed5.331 km/s
True Right ascension00h 00m 00s
True Declination0° 05' 21"
Sunlit
Object was in daylight at TLE epoch
Visualization TLE readout
Latitude-0.03139°
Longitude-29.04174°
Altitude7,688.021 km
Speed5.321 km/s
Apparent Right ascension15h 05m 05s
Apparent Declination-22° 28' 12"
Sunlit
Object is in daylight
Visualization observer readout
Local Sidereal Time17:35:11
Azimuth216.402° SW
Elevation18.473°
Doppler factor1
Orbital elements
Apogee altitude7,693.274 km
Perigee altitude7,663.095 km
Semi-major axis14,056.321 km
Eccentricity0.0010735
Inclination0.0946°
RAAN260.2178°
Arg. of periapsis142.2389°
True anomaly317.5364°
Mean anomaly317.6194°
Eccentric anomaly317.57791°
Mean motion1.30237 °/min
BSTARUnknown
Orbital period276.42 mins
Loading maneuver chart data...
Loading historical data...
Loading historical data...
Loading historical data...
Loading historical data...
Loading historical data...
Loading historical data...
Loading historical data...
Other satellites on launch #38 in the year 2014 (2014-07-10 UTC)

FREGAT R/B Visibility forecast

Observer location: undefined°, undefined

Span
Click to sort rows by Start time (UTC) header in descending order
Start Az.
Max El. time (UTC)
Max El. Az.
Max El.
End time (UTC)
End Az.
61 mins2025-02-09 15:15:47.590Z216.367° SW2025-02-09 15:39:47.590Z180.115° SSW23.749°2025-02-09 16:16:47.590Z128.455° SE
71 mins2025-02-09 20:46:47.590Z229.648° WSW2025-02-09 21:21:47.590Z180.156° SSW23.782°2025-02-09 21:57:47.590Z129.435° SE
71 mins2025-02-10 02:28:47.590Z229.558° WSW2025-02-10 03:03:47.590Z179.934° S23.689°2025-02-10 03:39:47.590Z129.424° SE
71 mins2025-02-10 08:10:47.590Z229.352° WSW2025-02-10 08:45:47.590Z179.929° S23.643°2025-02-10 09:21:47.590Z129.547° SE
72 mins2025-02-10 13:52:47.590Z229.458° WSW2025-02-10 14:27:47.590Z180.22° SSW23.729°2025-02-10 15:04:47.590Z128.562° SE
|